EW8331 Weather Reports


time (UTC)temp
F
wind
direction
speed
knots
gust
knots
rain 1hr
in
rain 24hr
in
rain mn
in
humidity
%
barometer
mb
20260901230020 72 263 6.1 12.2 0.00 0.00 0.00 47 1014.4
20260901224524 72 235 7.0 11.3 0.00 0.00 0.00 47 1014.5
20260901223015 72 184 7.0 13.9 0.00 0.00 0.00 47 1014.5
20260901221545 72 283 3.5 11.3 0.00 0.00 0.00 46 1014.7
20260901220013 73 187 4.3 10.4 0.00 0.00 0.00 46 1014.8
20260901214511 73 262 6.1 11.3 0.00 0.00 0.00 45 1014.9
20260901213018 72 166 2.6 8.7 0.00 0.00 0.00 48 1014.8
20260901211513 71 212 5.2 11.3 0.00 0.00 0.00 48 1014.9
20260901210006 71 239 2.6 11.3 0.00 0.00 0.00 49 1014.8
20260901204512 71 260 4.3 14.8 0.00 0.00 0.00 49 1015.1
20260901203003 71 205 5.2 11.3 0.00 0.00 0.00 49 1015.1
20260901201502 71 203 3.5 12.2 0.00 0.00 0.00 50 1015.4
20260901200118 70 144 5.2 10.4 0.00 0.00 0.00 50 1015.4
20260901194609 71 186 3.5 9.6 0.00 0.00 0.00 46 1015.4
20260901193055 71 187 4.3 7.8 0.00 0.00 0.00 47 1015.5
20260901191630 70 152 3.5 7.8 0.00 0.00 0.00 50 1015.6
20260901190059 70 238 4.3 8.7 0.00 0.00 0.00 50 1015.8
20260901184546 68 205 2.6 7.8 0.00 0.00 0.00 51 1016.0
20260901183052 68 263 3.5 13.9 0.00 0.00 0.00 52 1016.0
20260901181551 68 169 1.7 8.7 0.00 0.00 0.00 55 1016.0
20260901180040 66 197 3.5 7.8 0.00 0.00 0.00 54 1016.1
20260901174540 66 155 1.7 8.7 0.00 0.00 0.00 56 1015.8
20260901173034 65 204 3.5 9.6 0.00 0.00 0.00 58 1015.8
20260901171536 65 200 5.2 10.4 0.00 0.00 0.00 58 1015.6
20260901170031 65 188 3.5 7.8 0.00 0.00 0.00 60 1015.5
20260901164529 64 198 2.6 8.7 0.00 0.00 0.00 61 1015.6
20260901163032 64 170 4.3 10.4 0.00 0.00 0.00 62 1015.6
20260901161529 63 214 5.2 12.2 0.00 0.00 0.00 63 1015.5
20260901160021 63 184 4.3 11.3 0.00 0.00 0.00 65 1015.3
20260901154518 62 175 3.5 8.7 0.00 0.00 0.00 66 1015.1
20260901153020 62 203 3.5 8.7 0.00 0.00 0.00 67 1015.1
20260901151528 61 228 1.7 10.4 0.00 0.00 0.00 68 1014.9
20260901150013 60 198 3.5 7.8 0.00 0.00 0.00 69 1014.8
20260901144507 60 214 4.3 0.0 0.00 0.00 0.00 69 1014.7
20260901143004 60 181 4.3 8.7 0.00 0.00 0.00 70 1014.5
20260901141617 59 242 3.5 7.8 0.00 0.00 0.00 71 1014.2
20260901140132 59 204 1.7 7.0 0.00 0.00 0.00 73 1014.1
20260901134553 59 224 2.6 5.2 0.00 0.00 0.00 73 1013.9
20260901133052 59 212 1.7 6.1 0.00 0.00 0.00 73 1013.7
20260901131553 58 207 0.9 6.1 0.00 0.00 0.00 73 1013.7
20260901130051 58 201 2.6 6.1 0.00 0.00 0.00 74 1013.6
20260901124553 59 222 1.7 6.1 0.00 0.00 0.00 74 1013.6
20260901123049 59 149 2.6 7.8 0.00 0.00 0.00 74 1013.5
20260901121548 59 214 5.2 9.6 0.00 0.00 0.00 74 1013.3
20260901120046 59 232 3.5 8.7 0.00 0.00 0.00 74 1013.3
20260901114545 59 195 2.6 7.8 0.00 0.00 0.00 74 1013.4
20260901113044 59 238 4.3 9.6 0.00 0.00 0.00 74 1013.5
20260901111543 59 166 4.3 10.4 0.00 0.00 0.00 74 1013.5
20260901110042 58 215 2.6 10.4 0.00 0.00 0.00 75 1013.3
20260901104543 58 216 2.6 7.8 0.00 0.00 0.00 76 1013.5
20260901103040 58 201 3.5 7.8 0.00 0.00 0.00 77 1013.3
20260901101555 58 217 4.3 10.4 0.00 0.00 0.00 75 1013.1
20260901100042 58 228 5.2 14.8 0.00 0.00 0.00 74 1013.2
20260901094537 58 204 4.3 9.6 0.00 0.00 0.00 76 1013.1
20260901093024 58 218 4.3 7.8 0.00 0.00 0.00 77 1013.3
20260901091531 58 197 2.6 7.8 0.00 0.00 0.00 78 1013.3
20260901090020 57 218 2.6 7.0 0.00 0.00 0.00 78 1013.3
20260901084533 57 217 3.5 7.0 0.00 0.00 0.00 79 1013.4
20260901083017 57 204 2.6 5.2 0.00 0.00 0.00 79 1013.5
20260901081515 57 196 1.7 4.3 0.00 0.00 0.00 79 1013.6
20260901080027 57 226 1.7 4.3 0.00 0.00 0.00 80 1013.5
20260901074510 57 197 2.6 6.1 0.00 0.00 0.00 80 1013.4
20260901073011 57 239 2.6 7.8 0.00 0.00 0.00 80 1013.5
20260901071506 57 194 2.6 7.8 0.00 0.00 0.00 80 1013.3
20260901070004 57 155 5.2 11.3 0.00 0.00 0.00 80 1013.3
20260901064503 57 214 4.3 8.7 0.00 0.00 0.00 80 1013.4
20260901063106 57 183 5.2 9.6 0.00 0.00 0.00 80 1013.4
20260901061609 57 200 4.3 7.8 0.00 0.00 0.00 81 1013.3
20260901060059 57 173 5.2 9.6 0.00 0.00 0.00 80 1013.4
20260901054557 57 194 4.3 9.6 0.00 0.00 0.00 80 1013.4
20260901053108 57 193 5.2 8.7 0.00 0.00 0.00 81 1013.3
20260901051556 57 200 6.1 10.4 0.00 0.00 0.00 81 1013.1
20260901050055 57 210 5.2 12.2 0.00 0.00 0.00 80 1013.1
20260901044611 57 197 5.2 9.6 0.00 0.00 0.00 80 1013.1
20260901043053 57 184 4.3 10.4 0.00 0.00 0.00 80 1013.0
20260901041552 57 194 5.2 9.6 0.00 0.00 0.00 80 1012.9
20260901040100 58 155 4.3 10.4 0.00 0.00 0.00 79 1012.8
20260901034552 58 207 7.0 12.2 0.00 0.00 0.00 79 1012.7
20260901033051 58 190 7.0 12.2 0.00 0.00 0.00 79 1012.5
20260901031550 59 156 7.0 12.2 0.00 0.00 0.00 79 1012.3
20260901030049 59 181 7.8 13.0 0.00 0.00 0.00 78 1012.1
20260901024558 59 154 7.8 12.2 0.00 0.00 0.00 77 1012.1
20260901023049 60 203 7.8 14.8 0.00 0.00 0.00 76 1012.0
20260901021604 61 186 7.0 13.9 0.00 0.00 0.00 75 1011.9
20260901020049 61 200 7.0 16.5 0.00 0.00 0.00 73 1011.8
20260901014543 62 212 7.8 15.6 0.00 0.00 0.00 72 1011.9
20260901013042 63 186 8.7 17.4 0.00 0.00 0.00 71 1011.8
20260901011542 64 204 7.0 14.8 0.00 0.00 0.00 68 1011.8
20260901010042 65 195 9.6 18.2 0.00 0.00 0.00 66 1011.7
20260901004539 66 236 6.1 16.5 0.00 0.00 0.00 65 1011.5
20260901003039 67 187 5.2 13.9 0.00 0.00 0.00 66 1011.6
20260901001541 67 243 6.1 14.8 0.00 0.00 0.00 64 1011.7
20260901000039 68 255 5.2 15.6 0.00 0.00 0.00 63 1011.8
20260831234537 69 245 6.1 14.8 0.00 0.00 0.00 61 1011.8
20260831233036 69 195 6.1 15.6 0.00 0.00 0.00 60 1011.8
20260831231554 69 217 5.2 14.8 0.00 0.00 0.00 60 1011.9